Weather History for Olympia, WA

Change the Weather History Date:

Saturday, February 11, 2012

  Actual Average Record
Temperature  
Mean Temperature 44 °F 41 °F  
Max Temperature 47 °F 49 °F 67 °F (1963)
Min Temperature 41 °F 33 °F 18 °F (1948)
Degree Days  
Heating Degree Days 21 24  
Month to date heating degree days 248 265  
Since 1 July heating degree days 3459 3316  
Cooling Degree Days 0 0  
Month to date cooling degree days 0 0  
Year to date cooling degree days 0 0  
Moisture  
Dew Point 41 °F    
Average Humidity 85    
Maximum Humidity 93    
Minimum Humidity 76    
Precipitation  
Precipitation 0.05 in 0.20 in 0.93 in (1975)
Month to date precipitation 0.82 2.23  
Year to date precipitation 9.54 10.07  
Sea Level Pressure  
Sea Level Pressure 30.14 in    
Wind  
Wind Speed 7 mph (SSW)    
Max Wind Speed 16 mph    
Max Gust Speed 23 mph    
Visibility 9 miles    
Events Rain    
T = Trace of Precipitation, MM = Missing Value Source: NWS Daily Summary

Daily Weather History Graph

Daily Weather History Graph

Search for Another Location

Airport:

Trip Planner

Search our weather history database for the weather conditions in past years. The results will help you decide how hot, cold, wet, or windy it might be!

Date:

Astronomy

Feb. 11, 2012 Rise Set
Actual Time 7:22 AM PST 5:29 PM PST
Civil Twilight 6:51 AM PST 6:01 PM PST
Nautical Twilight 6:15 AM PST 6:36 PM PST
Astronomical Twilight 5:40 AM PST 7:12 PM PST
Moon 10:48 PM PST (2/11) 8:46 AM PST (2/11)
Length of Visible Light 11h 09m
Length of Day
10h 06m
Waning Gibbous, 81% of the Moon is Illuminated
Feb 11
Waning Gibbous
Feb 14
Last Quarter
Feb 21
New
Feb 29
First Quarter
Mar 8
Full

Hourly Weather History & Observations

Time (PST) Temp. Windchill Dew Point Humidity Pressure Visibility Wind Dir Wind Speed Gust Speed Precip Events Conditions
12:54 AM 45.0 °F 41.8 °F 42.1 °F 90% 30.08 in 10.0 mi South 5.8 mph - N/A   Overcast
1:54 AM 44.1 °F 40.1 °F 41.0 °F 89% 30.09 in 10.0 mi SSW 6.9 mph - N/A   Overcast
2:54 AM 44.1 °F 40.1 °F 41.0 °F 89% 30.11 in 10.0 mi South 6.9 mph - N/A   Overcast
3:07 AM 44.6 °F 42.2 °F 41.0 °F 87% 30.10 in 10.0 mi South 4.6 mph - N/A   Overcast
3:54 AM 44.1 °F 40.8 °F 41.0 °F 89% 30.12 in 10.0 mi South 5.8 mph - 0.00 in Rain Light Rain
4:15 AM 42.8 °F 39.3 °F 39.2 °F 87% 30.11 in 10.0 mi SSW 5.8 mph - 0.00 in   Overcast
4:54 AM 43.0 °F 40.3 °F 39.9 °F 89% 30.12 in 10.0 mi South 4.6 mph - 0.00 in   Overcast
5:54 AM 43.0 °F 39.5 °F 39.9 °F 89% 30.12 in 10.0 mi SSW 5.8 mph - 0.00 in   Overcast
6:21 AM 42.8 °F 39.3 °F 39.2 °F 87% 30.12 in 10.0 mi SSW 5.8 mph - N/A   Overcast
6:54 AM 43.0 °F 39.5 °F 39.9 °F 89% 30.12 in 10.0 mi SSW 5.8 mph - N/A   Overcast
7:49 AM 42.8 °F 38.6 °F 39.2 °F 87% 30.13 in 10.0 mi SSW 6.9 mph - N/A   Overcast
7:54 AM 43.0 °F 38.8 °F 39.0 °F 86% 30.14 in 10.0 mi SSW 6.9 mph - N/A   Overcast
8:54 AM 44.1 °F 38.1 °F 37.9 °F 79% 30.15 in 10.0 mi SSW 11.5 mph - N/A   Overcast
9:54 AM 44.1 °F 38.1 °F 39.0 °F 82% 30.17 in 10.0 mi South 11.5 mph - N/A   Overcast
10:54 AM 45.0 °F 38.9 °F 39.9 °F 82% 30.17 in 10.0 mi South 12.7 mph - N/A   Overcast
11:01 AM 44.6 °F 38.4 °F 41.0 °F 87% 30.17 in 10.0 mi South 12.7 mph 19.6 mph N/A   Overcast
11:54 AM 46.0 °F 41.0 °F 39.9 °F 79% 30.17 in 10.0 mi South 10.4 mph - N/A   Overcast
12:54 PM 46.9 °F - 39.9 °F 77% 30.14 in 10.0 mi South 12.7 mph - N/A   Overcast
1:54 PM 46.0 °F 40.6 °F 39.9 °F 79% 30.14 in 10.0 mi South 11.5 mph - N/A   Overcast
2:54 PM 45.0 °F 40.1 °F 41.0 °F 86% 30.16 in 7.0 mi South 9.2 mph - N/A   Overcast
3:17 PM 44.6 °F 40.2 °F 41.0 °F 87% 30.16 in 10.0 mi South 8.1 mph - 0.00 in Rain Light Rain
3:42 PM 44.6 °F 40.7 °F 42.8 °F 93% 30.16 in 5.0 mi SSW 6.9 mph - 0.02 in Rain Light Rain
3:54 PM 44.1 °F 40.1 °F 42.1 °F 93% 30.16 in 3.0 mi South 6.9 mph - 0.03 in Rain Light Rain
4:54 PM 44.1 °F 39.5 °F 42.1 °F 93% 30.17 in 4.0 mi SSW 8.1 mph - 0.02 in Rain Light Rain
5:54 PM 44.1 °F 42.5 °F 42.1 °F 93% 30.17 in 6.0 mi SW 3.5 mph - 0.00 in   Overcast
6:54 PM 43.0 °F - 39.9 °F 89% 30.17 in 10.0 mi Calm Calm - 0.00 in   Overcast
7:31 PM 42.8 °F 39.3 °F 41.0 °F 93% 30.17 in 10.0 mi SW 5.8 mph - N/A   Overcast
7:54 PM 43.0 °F 39.5 °F 41.0 °F 93% 30.17 in 10.0 mi SW 5.8 mph - 0.00 in Rain Light Rain
8:28 PM 42.8 °F 39.3 °F 41.0 °F 93% 30.16 in 10.0 mi SSW 5.8 mph - 0.00 in   Overcast
8:40 PM 42.8 °F 40.1 °F 41.0 °F 93% 30.16 in 10.0 mi South 4.6 mph - 0.00 in   Overcast
8:54 PM 43.0 °F 40.3 °F 41.0 °F 93% 30.17 in 10.0 mi SSW 4.6 mph - 0.00 in   Overcast
9:54 PM 41.0 °F 38.0 °F 39.9 °F 96% 30.16 in 9.0 mi South 4.6 mph - N/A   Overcast
10:54 PM 42.1 °F 40.2 °F 39.9 °F 92% 30.15 in 8.0 mi South 3.5 mph - N/A   Overcast
11:54 PM 41.0 °F 39.0 °F 39.9 °F 96% 30.15 in 9.0 mi South 3.5 mph - N/A   Overcast